This demonstration page uses our WeatherBlox Daily Observations layout. Learn more.

Left ArrowRight Arrow

39.29038, -76.61219

Hourly Observations for May 31, 2021

Temp ( °F °C ) Dew Point ( °F °C ) Humidity (%) Winds ( mph kmh ) Pressure ( in mb ) Visibility ( mi km ) Precip ( " mm )
12:54 am 00:54 Mostly Cloudy 51 10.6 47 8.3 86 86 W 7 11 30.22 1023 10 16 N/A
1:54 am 01:54 Partly Cloudy 50 10 46 7.8 86 86 WNW 6 9 30.22 1024 10 16 N/A
2:54 am 02:54 Mostly Cloudy 49 9.4 45 7.2 86 86 W 6 9 30.22 1024 10 16 N/A
3:54 am 03:54 Partly Cloudy 50 10 46 7.8 86 86 SW 5 7 30.22 1023 10 16 N/A
4:54 am 04:54 Mostly Cloudy 50 10 46 7.8 86 86 N N/A 30.23 1024 10 16 N/A
5:54 am 05:54 Partly Cloudy 49 9.4 45 7.2 86 86 N N/A 30.24 1024 10 16 N/A
6:54 am 06:54 Partly Cloudy 51 10.6 47 8.3 86 86 W 5 7 30.26 1025 10 16 N/A
7:54 am 07:54 Mostly Sunny 57 13.9 49 9.4 74 74 WNW 7 11 30.28 1025 10 16 N/A
8:54 am 08:54 Mostly Sunny 61 16.1 50 10 67 67 NW 7 11 30.29 1026 10 16 N/A
9:54 am 09:54 Mostly Sunny 64 17.8 48 8.9 56 56 NNW 8 13 30.29 1026 10 16 N/A
10:54 am 10:54 Mostly Sunny 68 20 47 8.3 47 47 NW 9 15 30.29 1026 10 16 N/A
11:54 am 11:54 Partly Cloudy 70 21.1 46 7.8 42 42 VRB 3 6 30.28 1025 10 16 N/A
12:54 pm 12:54 Partly Cloudy 72 22.2 47 8.3 41 41 WNW 10 17 30.27 1025 10 16 N/A
1:54 pm 13:54 Mostly Cloudy 73 22.8 45 7.2 37 37 WNW 6 9 30.25 1024 10 16 N/A
2:54 pm 14:54 Partly Cloudy 74 23.3 44 6.7 34 34 VRB 5 7 30.23 1024 10 16 N/A
3:54 pm 15:54 Mostly Sunny 76 24.4 44 6.7 32 32 VRB 3 6 30.23 1024 10 16 N/A
4:54 pm 16:54 Mostly Sunny 75 23.9 44 6.7 33 33 NNW 6 9 30.23 1024 10 16 N/A
5:54 pm 17:54 Mostly Sunny 75 23.9 43 6.1 32 32 VRB 5 7 30.23 1024 10 16 N/A
6:54 pm 18:54 Mostly Sunny 74 23.3 46 7.8 37 37 NW 6 9 30.23 1024 10 16 N/A
7:54 pm 19:54 Partly Cloudy 72 22.2 46 7.8 40 40 VRB 3 6 30.24 1024 10 16 N/A
8:54 pm 20:54 Partly Cloudy 66 18.9 48 8.9 52 52 N N/A 30.25 1024 10 16 N/A
9:54 pm 21:54 Clear 61 16.1 51 10.6 70 70 S 5 7 30.26 1025 10 16 N/A
10:54 pm 22:54 Mostly Clear 59 15 51 10.6 75 75 SW 3 6 30.26 1025 10 16 N/A
11:54 pm 23:54 Mostly Clear 59 15 51 10.6 75 75 N N/A 30.26 1025 10 16 N/A

Powered by AerisWeather